tititudorancea.com
Station Historical Data
Daily Summary for February 4, 2019 Units:  Metric    English   Both
« Previous Day
Next Day »
Daily Weekly Monthly Yearly Custom
  High: Low: Average:
Temperature: -17.8 °C 14.6 °C 19.1 °C
Dew Point: -17.8 °C 10.6 °C 12.7 °C
Humidity: Humidity % 45 % 67 %
Wind Speed: 0 km/h 9.3 km/h 26.2 km/h
Wind Gust: 0 km/h - -
Wind:- - South
Pressure: 0 hPa 1008.4 hPa -
Precipitation: 0 mm    
Historical Graphs
 
 
Ararat weather Find more about Weather in Ararat, AU


 



 


Tabular Data for February 4, 2019
Time Temperature Dew Point Pressure Wind Wind Speed Wind Gust Humidity Rainfall Rate (Hourly)
-17.8 °C -17.8 °C 0 hPa Calm     Humidity % 0 mm
00:04 18.9 °C 10.7 °C 1009.4 hPa South 18.5 km/h 12.9 km/h 59 % 0 mm
00:07 18.9 °C 10.7 °C 1009.4 hPa South 16.7 km/h 12.2 km/h 59 % 0 mm
00:14 19 °C 10.8 °C 1009.4 hPa South 18.5 km/h 10.5 km/h 59 % 0 mm
00:19 19.1 °C 10.8 °C 1009 hPa South 16.7 km/h 8.9 km/h 59 % 0 mm
00:24 19.1 °C 11.2 °C 1009 hPa South 13 km/h 11.3 km/h 60 % 0 mm
00:29 19.2 °C 11.5 °C 1009 hPa South 14.8 km/h 8 km/h 61 % 0 mm
00:34 19.3 °C 11.6 °C 1009 hPa South 14.8 km/h 9.3 km/h 61 % 0 mm
00:39 19.3 °C 11.6 °C 1009 hPa South 11.1 km/h 8.5 km/h 61 % 0 mm
00:44 19.3 °C 11.6 °C 1008.7 hPa South 9.3 km/h 6.4 km/h 61 % 0 mm
00:49 19.3 °C 11.6 °C 1009 hPa South 14.5 km/h 9.3 km/h 61 % 0 mm
00:54 19.4 °C 11.9 °C 1008.7 hPa South 11.1 km/h 6.4 km/h 62 % 0 mm
00:59 19.4 °C 11.9 °C 1009 hPa South 13 km/h 9.3 km/h 62 % 0 mm
01:04 19.4 °C 11.9 °C 1008.7 hPa South 13 km/h 10.5 km/h 62 % 0 mm
01:09 19.5 °C 12 °C 1008.7 hPa South 13 km/h 8.9 km/h 62 % 0 mm
01:14 19.4 °C 11.7 °C 1008.7 hPa South 11.3 km/h 11.6 km/h 61 % 0 mm
01:19 19.4 °C 11.7 °C 1008.7 hPa SSW 20.4 km/h 9.7 km/h 61 % 0 mm
01:24 19.4 °C 11.7 °C 1008.7 hPa SSW 24.1 km/h 13.8 km/h 61 % 0 mm
01:29 19.3 °C 11.4 °C 1008.7 hPa South 22.2 km/h 12.7 km/h 60 % 0 mm
01:34 19.2 °C 11.3 °C 1008.7 hPa South 14.5 km/h 8 km/h 60 % 0 mm
01:39 19.1 °C 11.3 °C 1008.7 hPa SSW 20.4 km/h 14 km/h 61 % 0 mm
01:44 18.8 °C 11.4 °C 1008.7 hPa South 18.5 km/h 13.4 km/h 62 % 0 mm
01:49 18.7 °C 11.6 °C 1008.7 hPa South 14.8 km/h 9.2 km/h 63 % 0 mm
01:54 18.6 °C 11.7 °C 1008.4 hPa South 20.4 km/h 14.6 km/h 64 % 0 mm
01:59 18.5 °C 11.8 °C 1008.7 hPa SSW 18.5 km/h 13.5 km/h 65 % 0 mm
02:04 18.4 °C 11.7 °C 1008.4 hPa South 17.7 km/h 10.9 km/h 65 % 0 mm
02:09 18.4 °C 11.7 °C 1008.4 hPa SSW 22.2 km/h 15.8 km/h 65 % 0 mm
02:14 18.4 °C 11.7 °C 1008.7 hPa SSW 22.5 km/h 20.1 km/h 65 % 0 mm
02:19 18.4 °C 11.7 °C 1008.7 hPa SSW 16.7 km/h 12.7 km/h 65 % 0 mm
02:24 18.2 °C 11.5 °C 1008.7 hPa SSW 20.4 km/h 12.9 km/h 65 % 0 mm
02:29 18.1 °C 11.6 °C 1008.7 hPa SSW 18.5 km/h 10.5 km/h 66 % 0 mm
02:34 18.1 °C 11.7 °C 1008.7 hPa SSW 24.1 km/h 12.7 km/h 66 % 0 mm
02:39 18.2 °C 11.7 °C 1008.7 hPa South 13 km/h 7.9 km/h 66 % 0 mm
02:44 18.2 °C 11.7 °C 1008.7 hPa South 14.8 km/h 8.2 km/h 66 % 0 mm
02:49 18.2 °C 11.7 °C 1009 hPa SSW 18.5 km/h 14.2 km/h 66 % 0 mm
02:54 18.3 °C 11.6 °C 1009 hPa SSW 18.5 km/h 15.6 km/h 65 % 0 mm
02:59 18.4 °C 11.7 °C 1009 hPa South 16.7 km/h 7.9 km/h 65 % 0 mm
03:04 18.4 °C 11.7 °C 1008.7 hPa SSW 13 km/h 10.9 km/h 65 % 0 mm
03:09 18.3 °C 11.8 °C 1008.7 hPa South 17.7 km/h 13.5 km/h 66 % 0 mm
03:14 18.2 °C 11.8 °C 1008.7 hPa South 20.4 km/h 11.3 km/h 66 % 0 mm
03:19 18.1 °C 11.9 °C 1008.7 hPa South 14.8 km/h 13.8 km/h 67 % 0 mm
03:24 18 °C 11.8 °C 1009 hPa South 18.5 km/h 12.9 km/h 67 % 0 mm
03:29 18 °C 11.8 °C 1009 hPa SSW 22.2 km/h 9 km/h 67 % 0 mm
03:34 18 °C 11.8 °C 1009 hPa South 20.4 km/h 13.2 km/h 67 % 0 mm
03:39 18.1 °C 11.8 °C 1009 hPa South 24.1 km/h 14.3 km/h 67 % 0 mm
03:44 18 °C 11.8 °C 1009 hPa South 24.1 km/h 13.7 km/h 67 % 0 mm
03:49 17.9 °C 11.9 °C 1009 hPa South 17.7 km/h 13.4 km/h 68 % 0 mm
03:54 17.8 °C 12 °C 1009 hPa South 16.7 km/h 13.2 km/h 69 % 0 mm
03:59 17.6 °C 12.1 °C 1009 hPa South 14.8 km/h 10.3 km/h 70 % 0 mm
04:04 17.4 °C 12.1 °C 1009 hPa South 22.2 km/h 14.3 km/h 71 % 0 mm
04:09 17.3 °C 12.2 °C 1009 hPa South 17.7 km/h 11.3 km/h 72 % 0 mm
04:14 17.2 °C 12.3 °C 1009 hPa South 18.5 km/h 12.9 km/h 73 % 0 mm
04:19 17 °C 12.1 °C 1009 hPa South 25.9 km/h 11.6 km/h 73 % 0 mm
04:24 16.7 °C 11.8 °C 1009 hPa SSW 18.5 km/h 13.5 km/h 73 % 0 mm
04:29 16.3 °C 11.9 °C 1009 hPa South 16.1 km/h 10.3 km/h 75 % 0 mm
04:34 15.9 °C 12.1 °C 1009 hPa South 20.4 km/h 14 km/h 78 % 0 mm
04:39 15.7 °C 12.4 °C 1009 hPa SSW 25.9 km/h 15.6 km/h 81 % 0 mm
04:44 15.5 °C 12.6 °C 1009.4 hPa SSW 25.9 km/h 14 km/h 83 % 0 mm
04:49 15.4 °C 12.7 °C 1009.4 hPa SSW 31.5 km/h 16.4 km/h 84 % 0 mm
04:54 15.3 °C 12.8 °C 1009.4 hPa SSW 18.5 km/h 13.8 km/h 85 % 0 mm
04:59 15.2 °C 12.9 °C 1009.4 hPa SSW 20.4 km/h 17.5 km/h 86 % 0 mm
05:04 15.2 °C 13 °C 1009.7 hPa South 31.5 km/h 19.3 km/h 87 % 0 mm
05:09 15.1 °C 12.9 °C 1009.7 hPa SSW 24.1 km/h 15.8 km/h 87 % 0 mm
05:14 15.2 °C 13.2 °C 1009.7 hPa SSW 29.6 km/h 14.3 km/h 88 % 0 mm
05:19 15.3 °C 13.5 °C 1009.7 hPa South 22.2 km/h 15.4 km/h 89 % 0 mm
05:24 15.4 °C 13.7 °C 1009.7 hPa South 22.5 km/h 18.3 km/h 89 % 0 mm
05:29 15.5 °C 13.7 °C 1009.7 hPa South 27.8 km/h 14.2 km/h 89 % 0 mm
05:34 15.7 °C 13.8 °C 1009.7 hPa South 24.1 km/h 10.3 km/h 89 % 0 mm
05:39 15.8 °C 13.9 °C 1009.7 hPa South 18.5 km/h 10.8 km/h 89 % 0 mm
05:44 15.9 °C 14.1 °C 1010 hPa South 19.3 km/h 14 km/h 89 % 0 mm
05:49 16.1 °C 14.1 °C 1010 hPa South 20.4 km/h 12.6 km/h 88 % 0 mm
05:54 16.1 °C 14.1 °C 1010 hPa South 24.1 km/h 16.1 km/h 88 % 0 mm
05:59 16.2 °C 14.1 °C 1010 hPa South 24.1 km/h 17.7 km/h 87 % 0 mm
06:04 16.3 °C 14.1 °C 1010 hPa South 25.9 km/h 11.4 km/h 87 % 0 mm
06:09 16.3 °C 14.1 °C 1010 hPa SW 24.1 km/h 19 km/h 87 % 0 mm
06:14 16.2 °C 14.1 °C 1010 hPa South 24.1 km/h 17.7 km/h 87 % 0 mm
06:19 16.3 °C 14.1 °C 1010.4 hPa South 27.8 km/h 10.8 km/h 87 % 0 mm
06:24 16.3 °C 13.9 °C 1010.4 hPa South 22.2 km/h 13.2 km/h 86 % 0 mm
06:29 16.3 °C 13.9 °C 1010.4 hPa South 25.9 km/h 18.2 km/h 86 % 0 mm
06:34 16.3 °C 13.9 °C 1010.4 hPa South 31.5 km/h 18.7 km/h 86 % 0 mm
06:39 16.3 °C 13.8 °C 1010.4 hPa South 24.1 km/h 14.2 km/h 85 % 0 mm
06:44 16.3 °C 13.8 °C 1010.4 hPa SSE 25.9 km/h 17.4 km/h 85 % 0 mm
06:49 16.2 °C 13.7 °C 1010.4 hPa SSW 35.2 km/h 22.4 km/h 85 % 0 mm
06:54 16.2 °C 13.7 °C 1010.7 hPa South 25.9 km/h 16.9 km/h 85 % 0 mm
06:59 16.2 °C 13.7 °C 1010.7 hPa SSE 24.1 km/h 11.4 km/h 85 % 0 mm
07:04 16.1 °C 13.6 °C 1010.7 hPa South 22.2 km/h 13.4 km/h 85 % 0 mm
07:09 16.1 °C 13.3 °C 1010.7 hPa South 31.5 km/h 13 km/h 84 % 0 mm
07:14 16 °C 13.3 °C 1011.1 hPa SSW 24.1 km/h 16.4 km/h 84 % 0 mm
07:19 16 °C 13.5 °C 1011.1 hPa South 18.5 km/h 13.4 km/h 85 % 0 mm
07:24 16.1 °C 13.3 °C 1011.1 hPa SSW 20.9 km/h 20 km/h 84 % 0 mm
07:29 16.1 °C 13.4 °C 1011.1 hPa SSE 22.2 km/h 16.1 km/h 84 % 0 mm
07:34 16.1 °C 13.4 °C 1011.1 hPa South 33.3 km/h 19.6 km/h 84 % 0 mm
07:39 16.1 °C 13.2 °C 1011.4 hPa SSW 22.2 km/h 13.7 km/h 83 % 0 mm
07:40 16.1 °C 13.2 °C 1011.4 hPa South 18.5 km/h 13.7 km/h 83 % 0 mm
07:49 16.1 °C 13.2 °C 1011.4 hPa SSW 18.5 km/h 13.7 km/h 83 % 0 mm
07:54 16.2 °C 13.3 °C 1011.7 hPa South 16.7 km/h 14.5 km/h 83 % 0 mm
07:59 16.2 °C 13.3 °C 1012.1 hPa South 31.5 km/h 17.9 km/h 83 % 0 mm
08:04 16.2 °C 13.1 °C 1012.1 hPa SSE 31.5 km/h 24.3 km/h 82 % 0 mm
08:09 16.2 °C 13.2 °C 1012.1 hPa South 16.7 km/h 9 km/h 82 % 0 mm
08:14 16.2 °C 13.2 °C 1012.1 hPa South 24.1 km/h 13.2 km/h 82 % 0 mm
08:19 16.2 °C 13.2 °C 1012.1 hPa SSW 29.6 km/h 16.1 km/h 82 % 0 mm
08:24 16.2 °C 13.3 °C 1012.1 hPa South 25.9 km/h 15 km/h 83 % 0 mm
08:29 16.2 °C 13.3 °C 1012.1 hPa South 22.2 km/h 17.1 km/h 83 % 0 mm
08:34 16.3 °C 13.4 °C 1012.1 hPa South 22.5 km/h 20 km/h 83 % 0 mm
08:39 16.3 °C 13.4 °C 1012.1 hPa South 29.6 km/h 17.4 km/h 83 % 0 mm
08:44 16.3 °C 13.4 °C 1012.1 hPa South 25.9 km/h 25.9 km/h 83 % 0 mm
08:49 16.3 °C 13.4 °C 1012.1 hPa South 20.9 km/h 12.1 km/h 83 % 0 mm
08:54 16.4 °C 13.3 °C 1012.1 hPa South 18.5 km/h 16.6 km/h 82 % 0 mm
08:59 16.4 °C 13.3 °C 1012.4 hPa SSE 18.5 km/h 12.1 km/h 82 % 0 mm
09:04 16.5 °C 13.4 °C 1012.4 hPa SSW 25.9 km/h 18 km/h 82 % 0 mm
09:09 16.5 °C 13.4 °C 1012.8 hPa South 25.9 km/h 11.4 km/h 82 % 0 mm
09:14 16.5 °C 13.4 °C 1012.8 hPa South 24.1 km/h 18.8 km/h 82 % 0 mm
09:19 16.5 °C 13.4 °C 1012.8 hPa South 25.9 km/h 18.7 km/h 82 % 0 mm
09:24 16.6 °C 13.4 °C 1012.8 hPa South 24.1 km/h 16.9 km/h 82 % 0 mm
09:29 16.6 °C 13.3 °C 1012.8 hPa SSW 24.1 km/h 14.6 km/h 81 % 0 mm
09:34 16.6 °C 13.1 °C 1012.8 hPa South 29.6 km/h 18.8 km/h 80 % 0 mm
09:39 16.6 °C 13.3 °C 1012.8 hPa SSW 19.3 km/h 13.8 km/h 81 % 0 mm
09:44 16.9 °C 13.4 °C 1012.8 hPa SSE 24.1 km/h 15 km/h 80 % 0 mm
09:49 17.1 °C 13.4 °C 1012.8 hPa SSE 33.3 km/h 22.9 km/h 79 % 0 mm
09:54 17.4 °C 13.6 °C 1012.8 hPa South 22.2 km/h 13.7 km/h 78 % 0 mm
09:59 17.8 °C 13.7 °C 1012.8 hPa South 25.9 km/h 19.3 km/h 77 % 0 mm
10:04 18.1 °C 13.6 °C 1012.8 hPa South 32.2 km/h 17.9 km/h 75 % 0 mm
10:09 17.8 °C 13.3 °C 1012.8 hPa SSW 29.6 km/h 24.5 km/h 75 % 0 mm
10:14 17.8 °C 13.3 °C 1013.1 hPa SE 27.8 km/h 18.5 km/h 75 % 0 mm
10:19 17.8 °C 13.3 °C 1013.1 hPa South 27.8 km/h 16.6 km/h 75 % 0 mm
10:24 17.9 °C 13.4 °C 1013.1 hPa South 29.6 km/h 9.2 km/h 75 % 0 mm
10:29 17.9 °C 13.4 °C 1013.1 hPa SSW 31.5 km/h 21.7 km/h 75 % 0 mm
10:34 17.9 °C 13.7 °C 1013.1 hPa South 33.3 km/h 12.4 km/h 76 % 0 mm
10:39 18.4 °C 13.5 °C 1013.1 hPa SSE 35.2 km/h 22.7 km/h 73 % 0 mm
10:44 18.6 °C 13.4 °C 1013.1 hPa SSW 31.5 km/h 24.3 km/h 72 % 0 mm
10:49 18.7 °C 13.5 °C 1013.1 hPa South 27.8 km/h 15.9 km/h 72 % 0 mm
10:54 18.9 °C 13.6 °C 1013.1 hPa South 33.3 km/h 25.9 km/h 71 % 0 mm
10:59 18.8 °C 13.2 °C 1013.1 hPa SSW 38.9 km/h 20.8 km/h 70 % 0 mm
11:04 18.8 °C 13.2 °C 1013.1 hPa South 31.5 km/h 20.6 km/h 70 % 0 mm
11:09 19.2 °C 13.6 °C 1013.4 hPa South 31.5 km/h 20.6 km/h 70 % 0 mm
11:14 19.6 °C 13.6 °C 1013.4 hPa SSE 31.5 km/h 24.5 km/h 68 % 0 mm
11:19 19.7 °C 13.4 °C 1013.1 hPa SSE 27.8 km/h 15.3 km/h 67 % 0 mm
11:24 20.1 °C 13.6 °C 1013.1 hPa SSW 29.6 km/h 21.4 km/h 66 % 0 mm
11:29 19.9 °C 13.6 °C 1013.1 hPa SW 27.4 km/h 17.1 km/h 67 % 0 mm
11:34 19.3 °C 13.2 °C 1013.4 hPa SSW 35.2 km/h 16.6 km/h 68 % 0 mm
11:39 19.4 °C 13.3 °C 1013.1 hPa South 31.5 km/h 17.2 km/h 68 % 0 mm
11:44 19.3 °C 13.3 °C 1013.1 hPa South 31.5 km/h 22 km/h 68 % 0 mm
11:49 19.5 °C 13.7 °C 1013.4 hPa South 29.6 km/h 19.8 km/h 69 % 0 mm
11:54 19.6 °C 13.6 °C 1013.4 hPa South 19.3 km/h 17.2 km/h 68 % 0 mm
11:59 19.7 °C 13.6 °C 1013.4 hPa SSE 24.1 km/h 11.3 km/h 68 % 0 mm
12:04 19.9 °C 13.6 °C 1013.4 hPa South 29.6 km/h 13 km/h 67 % 0 mm
12:09 19.9 °C 13.4 °C 1013.4 hPa SSW 33.8 km/h 28 km/h 66 % 0 mm
12:14 20.2 °C 13.6 °C 1013.4 hPa SSE 37 km/h 24.6 km/h 66 % 0 mm
12:19 20.3 °C 13.5 °C 1013.4 hPa SSW 33.3 km/h 22.2 km/h 65 % 0 mm
12:24 20.3 °C 13.6 °C 1013.4 hPa SSW 33.8 km/h 17.4 km/h 65 % 0 mm
12:29 20.3 °C 13.8 °C 1013.4 hPa SSE 27.8 km/h 18.7 km/h 66 % 0 mm
12:34 21.3 °C 14.2 °C 1013.4 hPa South 19.3 km/h 15 km/h 64 % 0 mm
12:39 21.3 °C 13.7 °C 1013.4 hPa South 25.9 km/h 21.1 km/h 62 % 0 mm
12:44 21.2 °C 13.3 °C 1013.4 hPa SSE 37 km/h 27.5 km/h 61 % 0 mm
12:49 21.2 °C 13.6 °C 1013.1 hPa South 18.5 km/h 12.1 km/h 62 % 0 mm
12:54 21.4 °C 13.8 °C 1013.1 hPa South 25.9 km/h 17.9 km/h 62 % 0 mm
12:59 21.4 °C 13.6 °C 1013.4 hPa SSE 33.3 km/h 19.3 km/h 61 % 0 mm
13:04 21.5 °C 13.9 °C 1013.1 hPa SSE 31.5 km/h 13 km/h 62 % 0 mm
13:09 21.7 °C 13.6 °C 1013.1 hPa SSE 29.6 km/h 15.1 km/h 60 % 0 mm
13:14 21.7 °C 13.6 °C 1013.4 hPa South 27.8 km/h 18.8 km/h 60 % 0 mm
13:19 21.9 °C 13.5 °C 1013.1 hPa South 25.9 km/h 13.2 km/h 59 % 0 mm
13:24 22.1 °C 13.4 °C 1013.1 hPa SSW 27.4 km/h 18.5 km/h 58 % 0 mm
13:29 21.7 °C 13.3 °C 1013.1 hPa SSE 29.6 km/h 15.3 km/h 59 % 0 mm
13:34 21.9 °C 13.3 °C 1013.1 hPa SSE 31.5 km/h 25.1 km/h 58 % 0 mm
13:39 22 °C 13.3 °C 1013.1 hPa SSW 25.9 km/h 17.4 km/h 58 % 0 mm
13:44 22.2 °C 13.6 °C 1012.8 hPa South 31.5 km/h 18.2 km/h 58 % 0 mm
13:49 22.8 °C 13.9 °C 1013.1 hPa SE 29.6 km/h 20.4 km/h 57 % 0 mm
13:54 22.8 °C 13.3 °C 1012.8 hPa SSE 31.5 km/h 20.4 km/h 55 % 0 mm
13:59 23 °C 13.4 °C 1012.8 hPa South 33.3 km/h 25.3 km/h 55 % 0 mm
14:04 22.8 °C 13.3 °C 1012.8 hPa SE 38.9 km/h 18.7 km/h 55 % 0 mm
14:09 23.1 °C 13.3 °C 1012.8 hPa South 20.4 km/h 14.5 km/h 54 % 0 mm
14:14 22.9 °C 13.1 °C 1012.8 hPa South 29.6 km/h 16.7 km/h 54 % 0 mm
14:19 22.8 °C 13.3 °C 1012.8 hPa South 25.9 km/h 10.5 km/h 55 % 0 mm
14:24 22.8 °C 13.6 °C 1012.8 hPa SE 29.6 km/h 20.3 km/h 56 % 0 mm
14:29 23.3 °C 13.4 °C 1012.8 hPa SSE 29.6 km/h 13.2 km/h 54 % 0 mm
14:34 23.4 °C 13.3 °C 1012.8 hPa SSE 31.5 km/h 18.2 km/h 53 % 0 mm
14:39 23.6 °C 13.4 °C 1012.8 hPa SE 29.6 km/h 18.3 km/h 53 % 0 mm
14:44 23.7 °C 13.3 °C 1012.8 hPa South 31.5 km/h 21.6 km/h 52 % 0 mm
14:49 24.1 °C 13.6 °C 1012.4 hPa SSE 24.1 km/h 15.1 km/h 52 % 0 mm
14:54 24.4 °C 13.6 °C 1012.8 hPa SSE 31.5 km/h 16.6 km/h 51 % 0 mm
14:59 24.3 °C 13.5 °C 1012.4 hPa South 22.2 km/h 17.4 km/h 51 % 0 mm
15:04 24.4 °C 13.7 °C 1012.4 hPa South 25.9 km/h 18.3 km/h 51 % 0 mm
15:09 24.6 °C 13.2 °C 1012.4 hPa SSE 25.9 km/h 22.2 km/h 49 % 0 mm
15:14 24.5 °C 13.1 °C 1012.4 hPa SSW 24.1 km/h 22 km/h 49 % 0 mm
15:19 24.4 °C 13 °C 1012.4 hPa SSE 37 km/h 22 km/h 49 % 0 mm
15:24 24.4 °C 13 °C 1012.4 hPa SE 31.5 km/h 15.3 km/h 49 % 0 mm
15:29 24.5 °C 13.4 °C 1012.1 hPa SSE 20.4 km/h 11.9 km/h 50 % 0 mm
15:34 25 °C 13.2 °C 1012.4 hPa SSE 17.7 km/h 19.6 km/h 48 % 0 mm
15:39 25.1 °C 13 °C 1012.4 hPa SSE 29.6 km/h 17.5 km/h 47 % 0 mm
15:44 24.9 °C 12.8 °C 1012.1 hPa SE 27.8 km/h 16.4 km/h 47 % 0 mm
15:49 25.2 °C 13.1 °C 1012.1 hPa SE 33.3 km/h 20.1 km/h 47 % 0 mm
15:54 25.2 °C 12.8 °C 1012.1 hPa SE 31.5 km/h 18.7 km/h 46 % 0 mm
15:59 25.1 °C 13 °C 1012.1 hPa SSE 22.2 km/h 18.7 km/h 47 % 0 mm
16:04 25.2 °C 12.8 °C 1012.1 hPa SSE 31.5 km/h 18.5 km/h 46 % 0 mm
16:09 25.4 °C 12.9 °C 1012.1 hPa South 38.9 km/h 23.8 km/h 46 % 0 mm
16:14 25.1 °C 12.7 °C 1012.1 hPa South 29.6 km/h 18.5 km/h 46 % 0 mm
16:19 25.5 °C 13.1 °C 1012.1 hPa SE 22.2 km/h 13.7 km/h 46 % 0 mm
16:24 25.7 °C 12.8 °C 1012.1 hPa SSE 27.8 km/h 15.1 km/h 45 % 0 mm
16:29 25.2 °C 12.8 °C 1012.1 hPa South 31.5 km/h 25.4 km/h 46 % 0 mm
16:34 25.3 °C 12.8 °C 1012.1 hPa SE 31.5 km/h 23.8 km/h 46 % 0 mm
16:39 25.6 °C 12.8 °C 1012.1 hPa SE 29 km/h 20.6 km/h 45 % 0 mm
16:44 25.5 °C 13.1 °C 1012.1 hPa SE 27.8 km/h 21.1 km/h 46 % 0 mm
16:49 25.8 °C 13 °C 1012.1 hPa SE 31.5 km/h 19.5 km/h 45 % 0 mm
16:54 25.8 °C 12.9 °C 1012.1 hPa South 31.5 km/h 17.7 km/h 45 % 0 mm
16:59 25.5 °C 12.7 °C 1012.1 hPa South 25.9 km/h 19.2 km/h 45 % 0 mm
17:04 25.2 °C 12.7 °C 1012.1 hPa South 24.1 km/h 11.4 km/h 46 % 0 mm
17:09 25.4 °C 12.9 °C 1012.1 hPa South 20.4 km/h 15.6 km/h 46 % 0 mm
17:14 25.3 °C 12.6 °C 1012.1 hPa South 31.5 km/h 20.6 km/h 45 % 0 mm
17:19 25.2 °C 12.8 °C 1012.1 hPa South 33.3 km/h 14.3 km/h 46 % 0 mm
17:24 25.1 °C 12.7 °C 1012.1 hPa SSE 31.5 km/h 15.4 km/h 46 % 0 mm
17:29 25.4 °C 12.9 °C 1012.1 hPa South 29.6 km/h 25.7 km/h 46 % 0 mm
17:34 25.2 °C 12.8 °C 1012.1 hPa South 33.3 km/h 25.9 km/h 46 % 0 mm
17:39 24.9 °C 12.8 °C 1012.1 hPa South 25.9 km/h 14.8 km/h 47 % 0 mm
17:44 25.2 °C 13.1 °C 1012.1 hPa South 24.1 km/h 13 km/h 47 % 0 mm
17:49 25.1 °C 13 °C 1012.4 hPa South 20.4 km/h 20.8 km/h 47 % 0 mm
17:54 25.1 °C 12.9 °C 1012.4 hPa SSE 22.2 km/h 13 km/h 47 % 0 mm
17:59 24.6 °C 13.2 °C 1012.4 hPa South 37 km/h 20.1 km/h 49 % 0 mm
18:04 24.2 °C 13.1 °C 1012.8 hPa South 29.6 km/h 19.2 km/h 50 % 0 mm
18:09 24.1 °C 13.3 °C 1012.8 hPa South 38.9 km/h 27.7 km/h 51 % 0 mm
18:14 23.7 °C 13.5 °C 1012.8 hPa South 40.7 km/h 24.1 km/h 53 % 0 mm
18:19 23.7 °C 13.6 °C 1012.8 hPa SSE 31.5 km/h 20.6 km/h 53 % 0 mm
18:24 23.6 °C 13.4 °C 1012.8 hPa South 27.8 km/h 18.7 km/h 53 % 0 mm
18:29 23.6 °C 13.4 °C 1013.1 hPa South 40.7 km/h 21.4 km/h 53 % 0 mm
18:34 23.3 °C 13.8 °C 1013.1 hPa South 25.9 km/h 13.2 km/h 55 % 0 mm
18:39 23.5 °C 13.7 °C 1013.1 hPa SE 30.6 km/h 22.9 km/h 54 % 0 mm
18:44 23 °C 13.4 °C 1013.4 hPa SSW 38.9 km/h 28.8 km/h 55 % 0 mm
18:49 22.7 °C 13.8 °C 1013.4 hPa South 37 km/h 14.6 km/h 57 % 0 mm
18:54 22.6 °C 13.9 °C 1013.4 hPa SSW 31.5 km/h 21.7 km/h 58 % 0 mm
18:59 22.6 °C 13.9 °C 1013.4 hPa South 25.9 km/h 19.6 km/h 58 % 0 mm
19:04 22.4 °C 13.7 °C 1013.4 hPa SSE 31.5 km/h 22.5 km/h 58 % 0 mm
19:09 22.2 °C 13.8 °C 1013.8 hPa SSW 33.3 km/h 21.6 km/h 59 % 0 mm
19:14 21.9 °C 13.8 °C 1013.8 hPa South 29.6 km/h 24.6 km/h 60 % 0 mm
19:19 21.7 °C 13.6 °C 1013.8 hPa South 24.1 km/h 21.4 km/h 60 % 0 mm
19:24 21.6 °C 13.7 °C 1014.1 hPa SSW 38.9 km/h 19.8 km/h 61 % 0 mm
19:29 21.4 °C 13.6 °C 1014.1 hPa South 29 km/h 17.5 km/h 61 % 0 mm
19:34 21.2 °C 13.7 °C 1014.1 hPa South 20.4 km/h 21.9 km/h 62 % 0 mm
19:39 21 °C 13.4 °C 1014.1 hPa South 33.3 km/h 19.5 km/h 62 % 0 mm
19:44 20.8 °C 13.5 °C 1014.1 hPa South 29.6 km/h 21.6 km/h 63 % 0 mm
19:49 20.7 °C 13.4 °C 1014.1 hPa South 31.5 km/h 19.3 km/h 63 % 0 mm
19:54 20.4 °C 13.4 °C 1014.4 hPa SSE 31.5 km/h 12.1 km/h 64 % 0 mm
19:59 20.2 °C 13.4 °C 1014.4 hPa SSW 29 km/h 17.1 km/h 65 % 0 mm
20:04 20.1 °C 13.3 °C 1014.4 hPa SE 37 km/h 15.9 km/h 65 % 0 mm
20:09 20 °C 13.4 °C 1014.4 hPa South 31.5 km/h 17.7 km/h 66 % 0 mm
20:14 19.8 °C 13.4 °C 1014.4 hPa South 42.6 km/h 24.8 km/h 67 % 0 mm
20:19 19.6 °C 13.3 °C 1014.4 hPa South 24.1 km/h 18.8 km/h 67 % 0 mm
20:24 19.5 °C 13.2 °C 1014.4 hPa South 35.2 km/h 20.1 km/h 67 % 0 mm
20:29 19.4 °C 13.3 °C 1014.4 hPa South 31.5 km/h 22.7 km/h 68 % 0 mm
20:34 19.3 °C 13.3 °C 1014.4 hPa South 27.8 km/h 15.1 km/h 68 % 0 mm
20:39 19.3 °C 13.2 °C 1014.8 hPa South 22.2 km/h 13.4 km/h 68 % 0 mm
20:44 19.2 °C 13.2 °C 1014.8 hPa South 31.5 km/h 20.6 km/h 68 % 0 mm
20:49 19.2 °C 12.7 °C 1014.8 hPa SE 25.7 km/h 17.9 km/h 66 % 0 mm
20:54 18.9 °C 12.6 °C 1014.8 hPa South 27.8 km/h 18.8 km/h 67 % 0 mm
20:59 18.6 °C 12.3 °C 1014.8 hPa South 18.5 km/h 15.3 km/h 67 % 0 mm
21:04 18.5 °C 12.3 °C 1014.8 hPa South 33.8 km/h 28.6 km/h 67 % 0 mm
21:09 18.2 °C 12.2 °C 1014.8 hPa South 27.8 km/h 20.4 km/h 68 % 0 mm
21:14 17.9 °C 11.9 °C 1015.1 hPa South 42.6 km/h 19 km/h 68 % 0 mm
21:19 17.7 °C 11.9 °C 1015.1 hPa South 31.5 km/h 26.2 km/h 69 % 0 mm
21:24 17.4 °C 11.7 °C 1015.1 hPa SSW 18.5 km/h 16.9 km/h 69 % 0 mm
21:29 17.2 °C 11.7 °C 1015.5 hPa South 29.6 km/h 20.8 km/h 70 % 0 mm
21:34 16.9 °C 11.4 °C 1015.5 hPa South 29.6 km/h 20.9 km/h 70 % 0 mm
21:39 16.7 °C 11.4 °C 1015.5 hPa SSE 42.6 km/h 27 km/h 71 % 0 mm
21:44 16.5 °C 11.2 °C 1015.5 hPa SSE 27.8 km/h 18.8 km/h 71 % 0 mm
21:49 16.3 °C 11.1 °C 1015.5 hPa SSW 25.7 km/h 17.7 km/h 71 % 0 mm
21:54 16 °C 10.9 °C 1015.5 hPa South 31.5 km/h 18.7 km/h 72 % 0 mm
21:59 15.7 °C 10.9 °C 1015.8 hPa South 29.6 km/h 21.9 km/h 73 % 0 mm
22:04 15.6 °C 10.9 °C 1015.8 hPa SSE 37 km/h 15.9 km/h 74 % 0 mm
22:09 15.4 °C 10.8 °C 1015.8 hPa SSW 35.2 km/h 19.6 km/h 74 % 0 mm
22:14 15.2 °C 10.8 °C 1015.8 hPa South 25.9 km/h 12.9 km/h 75 % 0 mm
22:19 15.1 °C 10.7 °C 1015.8 hPa South 31.5 km/h 22 km/h 75 % 0 mm
22:24 15 °C 10.8 °C 1015.8 hPa South 29.6 km/h 17.7 km/h 76 % 0 mm
22:29 14.9 °C 10.7 °C 1016.1 hPa SSE 33.3 km/h 14.6 km/h 76 % 0 mm
22:34 14.9 °C 10.9 °C 1016.1 hPa SSW 31.5 km/h 19 km/h 77 % 0 mm
22:39 14.8 °C 10.8 °C 1016.1 hPa SSW 35.2 km/h 20.3 km/h 77 % 0 mm
22:44 14.8 °C 10.8 °C 1016.1 hPa South 31.5 km/h 22.2 km/h 77 % 0 mm
22:49 14.7 °C 10.7 °C 1016.1 hPa South 31.5 km/h 20.9 km/h 77 % 0 mm
22:54 14.7 °C 10.7 °C 1016.1 hPa South 33.8 km/h 23.7 km/h 77 % 0 mm
22:59 14.7 °C 10.7 °C 1016.1 hPa South 20.9 km/h 16.3 km/h 77 % 0 mm
23:04 14.6 °C 10.6 °C 1016.1 hPa South 20.9 km/h 14.5 km/h 77 % 0 mm
23:09 14.6 °C 10.6 °C 1016.1 hPa South 29.6 km/h 10 km/h 77 % 0 mm
23:14 14.6 °C 10.6 °C 1016.1 hPa South 35.2 km/h 21.6 km/h 77 % 0 mm
23:19 14.6 °C 10.6 °C 1016.1 hPa South 29.6 km/h 15.1 km/h 77 % 0 mm
23:24 14.6 °C 10.6 °C 1016.1 hPa SSW 20.4 km/h 12.4 km/h 77 % 0 mm
23:29 14.7 °C 10.7 °C 1016.1 hPa SSE 35.2 km/h 19.5 km/h 77 % 0 mm
23:34 14.7 °C 10.7 °C 1016.1 hPa SSW 25.9 km/h 22.7 km/h 77 % 0 mm
23:39 14.7 °C 10.7 °C 1016.1 hPa South 25.7 km/h 19 km/h 77 % 0 mm
23:44 14.7 °C 10.7 °C 1016.1 hPa SSE 29.6 km/h 18.7 km/h 77 % 0 mm
23:49 14.8 °C 10.6 °C 1016.1 hPa SSW 38.9 km/h 21.2 km/h 76 % 0 mm
23:54 14.8 °C 10.8 °C 1016.1 hPa South 31.5 km/h 16.9 km/h 77 % 0 mm
23:59 14.7 °C 10.6 °C 1016.1 hPa South 31.5 km/h 17.1 km/h 76 % 0 mm
Ararat Weather
Compliments of Weather Underground - 2.25 mb
Click here to send mail.


ABOUT

Live weather data from Ararat, Victoria, Australia, 3377
Data uploaded from Cumulus every 5 minutes to Weather Underground.
This site then downloads the raw data for formatting and display.
Metric and imperial data can be displayed. Graphs and historical data available.
Includes Sun and Moon times and rain image live from BOM.

Check out Ararat Weather on Facebook, Twitter and Google +

Help support ongoing costs by checking out the ads





Follow @AraratWeather